TimeCDT,TemperatureF,Dew PointF,Humidity,Sea Level PressureIn,VisibilityMPH,Wind Direction,Wind SpeedMPH,Gust SpeedMPH,PrecipitationIn,Events,Conditions,WindDirDegrees,DateUTC
12:15 AM,44.6,28.4,53,30.06,10.0,SSE,6.9,-,N/A,,Clear,160,2012-10-30 05:15:00
12:35 AM,44.6,28.4,53,30.06,10.0,SSE,6.9,-,N/A,,Clear,160,2012-10-30 05:35:00
12:55 AM,44.6,28.4,53,30.06,10.0,South,5.8,-,N/A,,Clear,170,2012-10-30 05:55:00
1:15 AM,44.6,28.4,53,30.05,10.0,South,8.1,-,N/A,,Clear,180,2012-10-30 06:15:00
1:35 AM,44.6,28.4,53,30.05,10.0,South,8.1,-,N/A,,Clear,190,2012-10-30 06:35:00
2:55 AM,51.8,30.2,44,30.03,10.0,SSW,9.2,-,N/A,,Clear,200,2012-10-30 07:55:00
3:15 AM,51.8,30.2,44,30.03,10.0,SSW,9.2,-,N/A,,Clear,200,2012-10-30 08:15:00
3:55 AM,51.8,30.2,44,30.01,10.0,SSW,11.5,-,N/A,,Scattered Clouds,200,2012-10-30 08:55:00
4:15 AM,51.8,30.2,44,30.01,10.0,South,9.2,-,N/A,,Scattered Clouds,190,2012-10-30 09:15:00
4:35 AM,50.0,30.2,47,30.01,10.0,SSW,8.1,-,N/A,,Mostly Cloudy,200,2012-10-30 09:35:00
4:55 AM,50.0,30.2,47,30.01,10.0,South,6.9,-,N/A,,Overcast,190,2012-10-30 09:55:00
5:15 AM,50.0,30.2,47,30.00,10.0,SSW,8.1,-,N/A,,Overcast,200,2012-10-30 10:15:00
5:35 AM,50.0,30.2,47,30.00,10.0,SSW,8.1,-,N/A,,Mostly Cloudy,200,2012-10-30 10:35:00
5:55 AM,48.2,30.2,50,30.00,10.0,SSW,8.1,-,N/A,,Overcast,200,2012-10-30 10:55:00
6:15 AM,48.2,30.2,50,29.99,10.0,SSW,8.1,-,N/A,,Overcast,200,2012-10-30 11:15:00
6:35 AM,48.2,30.2,50,29.99,10.0,South,8.1,-,N/A,,Scattered Clouds,180,2012-10-30 11:35:00
6:55 AM,46.4,30.2,53,29.98,10.0,South,8.1,-,N/A,,Scattered Clouds,190,2012-10-30 11:55:00
7:15 AM,46.4,30.2,53,29.98,10.0,South,8.1,-,N/A,,Mostly Cloudy,190,2012-10-30 12:15:00
7:35 AM,48.2,30.2,50,29.97,10.0,SSW,9.2,-,N/A,,Overcast,200,2012-10-30 12:35:00
7:55 AM,46.4,30.2,53,29.97,10.0,South,10.4,-,N/A,,Overcast,190,2012-10-30 12:55:00
8:15 AM,46.4,30.2,53,29.96,10.0,South,9.2,-,N/A,,Mostly Cloudy,180,2012-10-30 13:15:00
8:35 AM,46.4,32.0,57,29.95,9.0,South,11.5,-,N/A,,Partly Cloudy,190,2012-10-30 13:35:00
8:55 AM,48.2,32.0,54,29.95,10.0,South,11.5,-,N/A,,Partly Cloudy,190,2012-10-30 13:55:00
9:15 AM,50.0,33.8,54,29.95,10.0,SSW,9.2,-,N/A,,Mostly Cloudy,210,2012-10-30 14:15:00
9:35 AM,51.8,33.8,50,29.97,10.0,SW,4.6,-,N/A,,Scattered Clouds,230,2012-10-30 14:35:00
9:55 AM,53.6,33.8,47,29.95,10.0,SSW,9.2,-,N/A,,Clear,210,2012-10-30 14:55:00
10:15 AM,55.4,33.8,44,29.95,10.0,SW,9.2,-,N/A,,Clear,230,2012-10-30 15:15:00
10:35 AM,55.4,33.8,44,29.95,10.0,SW,6.9,-,N/A,,Clear,220,2012-10-30 15:35:00
10:55 AM,57.2,35.6,44,29.96,10.0,WSW,4.6,-,N/A,,Clear,250,2012-10-30 15:55:00
11:15 AM,57.2,35.6,44,29.96,10.0,West,3.5,-,N/A,,Clear,280,2012-10-30 16:15:00
11:35 AM,59.0,35.6,42,29.96,10.0,Calm,Calm,-,N/A,,Clear,0,2012-10-30 16:35:00
11:55 AM,60.8,35.6,39,29.96,10.0,Calm,Calm,-,N/A,,Clear,0,2012-10-30 16:55:00
12:15 PM,60.8,35.6,39,29.96,10.0,NNE,4.6,-,N/A,,Clear,20,2012-10-30 17:15:00
12:35 PM,62.6,35.6,37,29.95,10.0,SE,4.6,-,N/A,,Clear,140,2012-10-30 17:35:00
12:55 PM,62.6,35.6,37,29.94,10.0,Calm,Calm,-,N/A,,Clear,0,2012-10-30 17:55:00
1:15 PM,64.4,35.6,34,29.93,10.0,Calm,Calm,-,N/A,,Clear,0,2012-10-30 18:15:00
1:35 PM,64.4,37.4,37,29.93,10.0,Calm,Calm,-,N/A,,Clear,0,2012-10-30 18:35:00
1:55 PM,66.2,37.4,35,29.93,10.0,Calm,Calm,-,N/A,,Clear,0,2012-10-30 18:55:00
2:15 PM,66.2,37.4,35,29.93,10.0,NW,3.5,-,N/A,,Clear,310,2012-10-30 19:15:00
2:35 PM,68.0,37.4,33,29.93,10.0,Calm,Calm,-,N/A,,Clear,0,2012-10-30 19:35:00
2:55 PM,68.0,37.4,33,29.92,5.0,East,5.8,-,N/A,,Clear,90,2012-10-30 19:55:00
3:15 PM,68.0,37.4,33,29.93,8.0,ENE,6.9,-,N/A,,Clear,60,2012-10-30 20:15:00
3:35 PM,68.0,37.4,33,29.93,10.0,NE,6.9,-,N/A,,Clear,50,2012-10-30 20:35:00
3:55 PM,69.8,37.4,31,29.93,10.0,East,8.1,-,N/A,,Clear,80,2012-10-30 20:55:00
4:15 PM,69.8,37.4,31,29.93,9.0,East,4.6,-,N/A,,Clear,100,2012-10-30 21:15:00
4:35 PM,68.0,37.4,33,29.93,8.0,East,6.9,-,N/A,,Clear,100,2012-10-30 21:35:00
4:55 PM,68.0,37.4,33,29.93,2.0,ENE,5.8,-,N/A,,Clear,70,2012-10-30 21:55:00
5:15 PM,68.0,37.4,33,29.93,4.0,ENE,5.8,-,N/A,,Clear,70,2012-10-30 22:15:00
5:35 PM,66.2,37.4,35,29.93,5.0,ENE,5.8,-,N/A,,Clear,60,2012-10-30 22:35:00
5:55 PM,64.4,37.4,37,29.93,4.0,ENE,5.8,-,N/A,,Clear,70,2012-10-30 22:55:00
6:15 PM,62.6,35.6,37,29.94,5.0,NE,5.8,-,N/A,,Clear,50,2012-10-30 23:15:00
6:35 PM,60.8,35.6,39,29.95,4.0,ENE,8.1,-,N/A,,Clear,60,2012-10-30 23:35:00
6:55 PM,59.0,35.6,42,29.96,4.0,ENE,9.2,-,N/A,,Clear,60,2012-10-30 23:55:00
7:15 PM,57.2,33.8,41,29.98,5.0,ENE,8.1,-,N/A,,Clear,60,2012-10-31 00:15:00
7:35 PM,55.4,33.8,44,29.98,5.0,ENE,6.9,-,N/A,,Clear,60,2012-10-31 00:35:00
7:55 PM,53.6,33.8,47,29.99,5.0,ENE,6.9,-,N/A,,Clear,60,2012-10-31 00:55:00
8:15 PM,53.6,33.8,47,30.00,7.0,ENE,6.9,-,N/A,,Clear,60,2012-10-31 01:15:00
8:35 PM,51.8,33.8,50,30.01,6.0,ENE,6.9,-,N/A,,Clear,60,2012-10-31 01:35:00
8:55 PM,51.8,32.0,47,30.01,5.0,ENE,5.8,-,N/A,,Clear,60,2012-10-31 01:55:00
9:15 PM,50.0,32.0,50,30.01,5.0,ENE,6.9,-,N/A,,Clear,60,2012-10-31 02:15:00
9:35 PM,48.2,32.0,54,30.01,5.0,ENE,5.8,-,N/A,,Clear,70,2012-10-31 02:35:00
9:55 PM,48.2,32.0,54,30.01,4.0,East,6.9,-,N/A,,Clear,80,2012-10-31 02:55:00
10:15 PM,46.4,32.0,57,30.02,3.0,East,4.6,-,N/A,,Clear,80,2012-10-31 03:15:00
10:35 PM,46.4,32.0,57,30.02,2.0,East,4.6,-,N/A,,Clear,90,2012-10-31 03:35:00
10:55 PM,46.4,30.2,53,30.02,3.0,East,4.6,-,N/A,,Clear,100,2012-10-31 03:55:00
11:15 PM,46.4,30.2,53,30.03,10.0,ENE,4.6,-,N/A,,Clear,60,2012-10-31 04:15:00
11:35 PM,46.4,30.2,53,30.03,3.0,NE,3.5,-,N/A,,Clear,50,2012-10-31 04:35:00
11:55 PM,44.6,30.2,57,30.03,10.0,ENE,4.6,-,N/A,,Clear,60,2012-10-31 04:55:00